Location: Geçitköy
(36.7327°N, 29.8010°E)
Time: 19:00:48
(UTC+00:00)

Cosmos 1302 Rocket - Pass Details

Date: 12 January 2026
Orbit: 752 x 772 km, 74.0° (Epoch: 11 February)

Event Time Altitude Azimuth Distance (km) Brightness Sun altitude
Rises 17:13:03 0° 202° (SSW) 3,210 7.6 -25.1°
Reaches altitude 10° 17:15:25 10° 205° (SSW) 2,291 6.8 -25.6°
Maximum altitude 17:20:36 70° 289° (WNW) 815 4.2 -26.6°
Enters shadow 17:21:51 51° 352° (N) 966 4.4 -26.9°
